Location: *
(43.0167°S, 179.9000°E)
Time: 10:40:38
(UTC+00:00)

Cosmos 1437 Rocket - Pass Details

Date: 12 August 2024
Orbit: 475 x 525 km, 81.2° (Epoch: 12 September)

Event Time Altitude Azimuth Distance (km) Brightness Sun altitude
Rises 17:39:45 0° 358° (N) 2,625 6.4 -14.6°
Reaches altitude 10° 17:41:53 10° 1° (N) 1,738 5.5 -14.2°
Maximum altitude 17:45:40 65° 82° (E) 569 3.1 -13.5°
Drops below altitude 10° 17:49:26 10° 164° (SSE) 1,732 5.5 -12.8°
Sets 17:51:34 0° 166° (SSE) 2,615 6.3 -12.4°
